Weather Roundup
Issued by NWS Springfield, MO

Home | Current Version | Previous Version | Text Only | Print | Product List | Glossary On
Versions: 1 2 3 4 5 6 7 8 9 10 11 12 13 14 15 16 17 18 19 20 21 22 23 24 25 26 27 28 29 30 31 32 33 34 35 36 37 38 39 40 41 42 43 44 45 46 47 48 49 50
000
NZUS99 KSGF 202257
HRRSGF

HOURLY WEATHER
NATIONAL WEATHER SERVICE SPRINGFIELD MO
600 PM CDT SUN MAY 20 2018

......SGF CWA......

CITY           SKY/WX    TMP DP  RH WIND       PRES   REMARKS
SPRINGFIELD    CLOUDY    80  68  66 SW7       29.99F THUNDER
JOPLIN         MOSUNNY   71  67  87 S8        30.00F
WEST PLAINS    SUNNY     81  68  64 E8        30.03F
ROLLA          MOSUNNY   78  64  61 E6        30.05S
BRANSON        PTSUNNY   75  72  88 E7        29.99F THUNDER

......SURROUNDING SGF CWA......

CITY           SKY/WX    TMP DP  RH WIND       PRES   REMARKS
CHANUTE        CLOUDY    71  65  81 NE5       30.02S
PARSONS        CLOUDY    70  65  84 NW6       30.02F
COFFEYVILLE    CLOUDY    70  65  84 NW7       30.01F
EMPORIA        CLOUDY    64  60  87 NW6       30.05R
HARRISON AR    PTSUNNY   81  70  69 SE8       30.00R

......KANSAS AND MISSOURI......

CITY           SKY/WX    TMP DP  RH WIND       PRES   REMARKS
KANSAS CTY INT CLOUDY    70  63  78 CALM      30.02F
SEDALIA        CLOUDY    78  68  71 SE5       30.02F
ST JOSEPH      LGT RAIN  68  66  93 E7        30.02F
ST LOUIS       NOT AVBL
WICHITA        PTSUNNY   67  58  72 N5        30.05F
TOPEKA         CLOUDY    68  65  90 CALM      30.02S
OLATHE         CLOUDY    70  63  78 N5        30.02F

......TENNESSEE......

CITY           SKY/WX    TMP DP  RH WIND       PRES   REMARKS
MEMPHIS        NOT AVBL
NASHVILLE      TSTM      74  68  81 SW10      30.08R

......ARKANSAS.......

CITY           SKY/WX    TMP DP  RH WIND       PRES   REMARKS
FAYETTEVILLE   CLOUDY    80  65  59 W6        30.00R
FT SMITH       CLOUDY    86  64  47 SW9       29.94F
LITTLE ROCK    PTSUNNY   86  70  58 SE8       29.95S HX  90

......OKLAHOMA.......

CITY           SKY/WX    TMP DP  RH WIND       PRES   REMARKS
TULSA          PTSUNNY   78  66  66 VRB5      29.99F
PONCA CITY     CLOUDY    66  58  75 N7        30.05S
MCALESTER      CLOUDY    77  67  71 NW10      30.01R
OKLAHOMA CITY  PTSUNNY   71  58  63 NW6       30.04S

......IOWA............

CITY           SKY/WX    TMP DP  RH WIND       PRES   REMARKS
DES MOINES     NOT AVBL
QUAD CITIES    CLOUDY    64  56  75 E9        30.10R

......ILLINOIS........

CITY           SKY/WX    TMP DP  RH WIND       PRES   REMARKS
QUINCY         NOT AVBL
CHICAGO        CLOUDY    49  41  74 NE14      30.16S





USA.gov is the U.S. government's official web portal to all federal, state and local government web resources and services.